When you browse on this site, cookies collect data to enhance your experience and personalize the content and advertising you see.
Visit our Privacy Policy to learn more. By continuing to use the site, you agree to this use of cookies and data.
  • In Deutschland
  • Länderverzeichnis
  • Für 7 Tage
  • Wassertemperatur
  • Wetterkarte
  • Widgets
  • user-avatar
    Anmelden

    Stündliche Wetter Gisborne

    Heute, 30 März, Montag

    Zeit Temperatur Niederschläge Wind Luftdruck Luftfeuchtigkeit
    00:00 +14°C° 0 mm 1 m/S 763 mmHg 98%
    01:00 +14°C° 0.9 mm 2 m/S 763 mmHg 98%
    02:00 +13°C° 0.9 mm 3 m/S 763 mmHg 98%
    03:00 +14°C° 0.9 mm 3 m/S 763 mmHg 98%
    04:00 +14°C° 0.8 mm 3 m/S 763 mmHg 98%
    05:00 +15°C° 0.8 mm 2 m/S 763 mmHg 98%
    06:00 +15°C° 0 mm 1 m/S 762 mmHg 98%
    07:00 +15°C° 6.3 mm 2 m/S 762 mmHg 98%
    08:00 +15°C° 6.3 mm 2 m/S 762 mmHg 98%
    09:00 +16°C° 6.3 mm 2 m/S 762 mmHg 97%
    10:00 +16°C° 3.1 mm 2 m/S 762 mmHg 97%
    11:00 +16°C° 3.1 mm 3 m/S 762 mmHg 96%
    12:00 +16°C° 3.1 mm 3 m/S 762 mmHg 96%
    13:00 +16°C° 1.9 mm 3 m/S 761 mmHg 95%
    14:00 +16°C° 1.9 mm 2 m/S 761 mmHg 94%
    15:00 +16°C° 1.9 mm 2 m/S 760 mmHg 94%
    16:00 +16°C° 0.4 mm 1 m/S 760 mmHg 95%
    17:00 +15°C° 0.4 mm 1 m/S 760 mmHg 96%
    18:00 +15°C° 0.4 mm 1 m/S 760 mmHg 97%
    19:00 +15°C° 0.8 mm 1 m/S 761 mmHg 97%
    20:00 +15°C° 0.8 mm 1 m/S 761 mmHg 97%
    21:00 +15°C° 0.8 mm 1 m/S 761 mmHg 97%
    22:00 +15°C° 1.3 mm 1 m/S 761 mmHg 97%
    23:00 +15°C° 1.3 mm 1 m/S 761 mmHg 97%

    Morgen, 31 März, Dienstag

    Zeit Temperatur Niederschläge Wind Luftdruck Luftfeuchtigkeit
    00:00 +15°C° 1.3 mm 2 m/S 761 mmHg 97%
    01:00 +15°C° 0.5 mm 2 m/S 761 mmHg 97%
    02:00 +14°C° 0.5 mm 2 m/S 760 mmHg 98%
    03:00 +14°C° 0.5 mm 2 m/S 760 mmHg 98%
    04:00 +14°C° 0 mm 2 m/S 760 mmHg 98%
    05:00 +14°C° 0 mm 2 m/S 760 mmHg 98%
    06:00 +13°C° 0 mm 2 m/S 760 mmHg 98%
    07:00 +15°C° 0 mm 1 m/S 760 mmHg 94%
    08:00 +18°C° 0 mm 1 m/S 761 mmHg 91%
    09:00 +19°C° 0 mm 1 m/S 761 mmHg 87%
    10:00 +21°C° 0 mm 1 m/S 761 mmHg 76%
    11:00 +23°C° 0 mm 2 m/S 760 mmHg 65%
    12:00 +25°C° 0 mm 2 m/S 760 mmHg 55%
    13:00 +24°C° 0.3 mm 2 m/S 760 mmHg 64%
    14:00 +23°C° 0.3 mm 2 m/S 759 mmHg 74%
    15:00 +20°C° 0.3 mm 2 m/S 759 mmHg 83%
    16:00 +19°C° 0.2 mm 2 m/S 759 mmHg 87%
    17:00 +18°C° 0.2 mm 2 m/S 759 mmHg 91%
    18:00 +18°C° 0.2 mm 1 m/S 759 mmHg 95%
    19:00 +18°C° 0.2 mm 1 m/S 760 mmHg 96%
    20:00 +16°C° 0.2 mm 1 m/S 760 mmHg 97%
    21:00 +15°C° 0.2 mm 2 m/S 760 mmHg 98%
    22:00 +15°C° 0 mm 1 m/S 760 mmHg 98%
    23:00 +15°C° 0 mm 1 m/S 760 mmHg 98%

    übermorgen, 1 April, Mittwoch

    Zeit Temperatur Niederschläge Wind Luftdruck Luftfeuchtigkeit
    00:00 +15°C° 0 mm 1 m/S 760 mmHg 98%
    01:00 +15°C° 0 mm 1 m/S 760 mmHg 98%
    02:00 +15°C° 0 mm 1 m/S 760 mmHg 98%
    03:00 +14°C° 0 mm 1 m/S 760 mmHg 98%
    04:00 +14°C° 0 mm 1 m/S 760 mmHg 98%
    05:00 +15°C° 0 mm 1 m/S 760 mmHg 98%
    06:00 +15°C° 0 mm 1 m/S 760 mmHg 98%
    07:00 +16°C° 0 mm 1 m/S 760 mmHg 95%
    08:00 +18°C° 0 mm 1 m/S 761 mmHg 92%
    09:00 +17°C° 0 mm 0 m/S 761 mmHg 90%
    10:00 +20°C° 0 mm 1 m/S 761 mmHg 82%
    11:00 +21°C° 0 mm 1 m/S 760 mmHg 75%
    12:00 +23°C° 0 mm 2 m/S 760 mmHg 68%
    13:00 +23°C° 0 mm 2 m/S 760 mmHg 68%
    14:00 +23°C° 0 mm 2 m/S 759 mmHg 67%
    15:00 +23°C° 0 mm 2 m/S 759 mmHg 67%
    16:00 +20°C° 0 mm 2 m/S 759 mmHg 75%
    17:00 +19°C° 0 mm 1 m/S 759 mmHg 84%
    18:00 +16°C° 0 mm 1 m/S 759 mmHg 92%
    19:00 +16°C° 0 mm 1 m/S 760 mmHg 94%
    20:00 +15°C° 0 mm 1 m/S 760 mmHg 95%
    21:00 +14°C° 0 mm 0 m/S 760 mmHg 97%
    22:00 +14°C° 0 mm 1 m/S 760 mmHg 97%
    23:00 +14°C° 0 mm 1 m/S 760 mmHg 98%

    2 April, Donnerstag

    Zeit Temperatur Niederschläge Wind Luftdruck Luftfeuchtigkeit
    00:00 +14°C° 0 mm 1 m/S 760 mmHg 98%
    01:00 +14°C° 0 mm 2 m/S 760 mmHg 98%
    02:00 +14°C° 0 mm 2 m/S 760 mmHg 98%
    03:00 +14°C° 0 mm 2 m/S 760 mmHg 98%
    04:00 +14°C° 0 mm 2 m/S 760 mmHg 98%
    05:00 +14°C° 0 mm 2 m/S 760 mmHg 98%
    06:00 +14°C° 0 mm 2 m/S 760 mmHg 98%
    07:00 +15°C° 0.1 mm 2 m/S 760 mmHg 93%
    08:00 +17°C° 0.1 mm 2 m/S 761 mmHg 87%
    09:00 +18°C° 0.1 mm 2 m/S 761 mmHg 82%
    10:00 +19°C° 0.3 mm 3 m/S 761 mmHg 80%
    11:00 +20°C° 0.3 mm 3 m/S 760 mmHg 77%
    12:00 +20°C° 0.3 mm 4 m/S 760 mmHg 74%
    13:00 +20°C° 0.6 mm 4 m/S 760 mmHg 79%
    14:00 +19°C° 0.6 mm 3 m/S 760 mmHg 85%
    15:00 +19°C° 0.6 mm 3 m/S 760 mmHg 90%
    16:00 +18°C° 0.4 mm 3 m/S 760 mmHg 92%
    17:00 +17°C° 0.4 mm 3 m/S 760 mmHg 94%
    18:00 +16°C° 0.4 mm 2 m/S 760 mmHg 96%
    19:00 +16°C° 0.2 mm 2 m/S 760 mmHg 97%
    20:00 +15°C° 0.2 mm 2 m/S 761 mmHg 97%
    21:00 +15°C° 0.2 mm 2 m/S 761 mmHg 97%
    22:00 +14°C° 0.2 mm 2 m/S 761 mmHg 97%
    23:00 +14°C° 0.2 mm 2 m/S 761 mmHg 97%

    3 April, Freitag

    Zeit Temperatur Niederschläge Wind Luftdruck Luftfeuchtigkeit
    00:00 +14°C° 0.2 mm 1 m/S 761 mmHg 97%
    01:00 +14°C° 0.1 mm 2 m/S 761 mmHg 97%
    02:00 +14°C° 0.1 mm 2 m/S 761 mmHg 97%
    03:00 +14°C° 0.1 mm 2 m/S 761 mmHg 97%
    04:00 +14°C° 0.2 mm 2 m/S 761 mmHg 97%
    05:00 +14°C° 0.2 mm 2 m/S 761 mmHg 97%
    06:00 +14°C° 0.2 mm 2 m/S 762 mmHg 97%
    07:00 +15°C° 0.4 mm 2 m/S 762 mmHg 96%
    08:00 +16°C° 0.4 mm 2 m/S 762 mmHg 95%
    09:00 +17°C° 0.4 mm 2 m/S 763 mmHg 93%
    10:00 +17°C° 0.5 mm 2 m/S 763 mmHg 92%
    11:00 +17°C° 0.5 mm 3 m/S 763 mmHg 92%
    12:00 +18°C° 0.5 mm 3 m/S 762 mmHg 91%
    13:00 +18°C° 0.4 mm 3 m/S 762 mmHg 90%
    14:00 +18°C° 0.4 mm 3 m/S 762 mmHg 89%
    15:00 +18°C° 0.4 mm 4 m/S 762 mmHg 88%
    16:00 +17°C° 0.3 mm 3 m/S 762 mmHg 91%
    17:00 +16°C° 0.3 mm 3 m/S 762 mmHg 93%
    18:00 +14°C° 0.3 mm 3 m/S 762 mmHg 96%
    19:00 +14°C° 0.3 mm 3 m/S 763 mmHg 96%
    20:00 +14°C° 0.3 mm 3 m/S 764 mmHg 97%
    21:00 +14°C° 0.3 mm 3 m/S 764 mmHg 97%
    22:00 +13°C° 0.2 mm 3 m/S 764 mmHg 96%
    23:00 +13°C° 0.2 mm 3 m/S 764 mmHg 96%

    4 April, Samstag

    Zeit Temperatur Niederschläge Wind Luftdruck Luftfeuchtigkeit
    00:00 +13°C° 0.2 mm 3 m/S 764 mmHg 96%
    01:00 +12°C° 0.1 mm 3 m/S 764 mmHg 96%
    02:00 +12°C° 0.1 mm 3 m/S 764 mmHg 96%
    03:00 +12°C° 0.1 mm 3 m/S 764 mmHg 96%
    04:00 +12°C° 0.1 mm 3 m/S 764 mmHg 95%
    05:00 +12°C° 0.1 mm 3 m/S 765 mmHg 95%
    06:00 +13°C° 0.1 mm 2 m/S 765 mmHg 95%
    07:00 +13°C° 0.1 mm 3 m/S 765 mmHg 92%
    08:00 +14°C° 0.1 mm 3 m/S 765 mmHg 90%
    09:00 +16°C° 0.1 mm 3 m/S 766 mmHg 87%
    10:00 +17°C° 0 mm 3 m/S 766 mmHg 77%
    11:00 +18°C° 0 mm 3 m/S 765 mmHg 66%
    12:00 +19°C° 0 mm 3 m/S 765 mmHg 56%
    13:00 +19°C° 0 mm 2 m/S 765 mmHg 56%
    14:00 +18°C° 0 mm 2 m/S 765 mmHg 56%
    15:00 +18°C° 0 mm 2 m/S 765 mmHg 57%
    16:00 +16°C° 0 mm 2 m/S 765 mmHg 65%
    17:00 +15°C° 0 mm 1 m/S 765 mmHg 74%
    18:00 +13°C° 0 mm 1 m/S 765 mmHg 83%
    19:00 +12°C° 0 mm 1 m/S 765 mmHg 86%
    20:00 +11°C° 0 mm 1 m/S 766 mmHg 90%
    21:00 +11°C° 0 mm 1 m/S 766 mmHg 93%
    22:00 +10°C° 0 mm 1 m/S 766 mmHg 93%
    23:00 +10°C° 0 mm 1 m/S 766 mmHg 93%
    Mehr zeigen